To NAV CANADA Home Page Login to a new session Search on AWWS site Disclaimer Vers la page française équivalente Tips FAQ What's new on the site To the Forecasts and Observations / NOTAM section To "File a Flight Plan" website Publications and other links Update of the User's profile FIC Telephone Numbers My Weather Data Folder Route Weather Data Regional Weather Data Local Weather Data To the Forecasts and Observations / NOTAM section
Request Generated 03/21/2019 at 01:43:55 UTC . Weather information available at that time is displayed.

METAR/TAF

FLIN FLON/MB    (show WxCam)

LWIS CYFO 210100Z AUTO 32007KT 280V340 13/M05 A2986=
LWIS CYFO 210000Z AUTO 24006KT 15/M01 A2986=
METAR CYFO 202300Z 22007KT 15SM FEW250 15/M01 A2985 RMK CI1 LAST OBS/NEXT 211100UTC SLP122 DENSITY ALT 1300FT=

CYFO - No TAF is issued for this station

Your time UTC time
Weather data provided by Environment Canada and NAV CANADA